Weather History for KAEL - April, 2013

Change the Weather History Date:

Thursday, April 11, 2013

  Actual Average Record
Temperature  
Mean Temperature 34 °F -  
Max Temperature 35 °F 52 °F 73 °F (2006)
Min Temperature 33 °F 34 °F 21 °F (2004)
Degree Days  
Heating Degree Days 31    
Moisture  
Dew Point 34 °F    
Average Humidity 100    
Maximum Humidity 100    
Minimum Humidity 100    
Precipitation  
Precipitation 0.51 in - - ()
Sea Level Pressure  
Sea Level Pressure 29.64 in    
Wind  
Wind Speed 11 mph (ENE)    
Max Wind Speed 17 mph    
Max Gust Speed 24 mph    
Visibility 3 miles    
Events Rain , Snow    
Averages and records for this station are not official NWS values.
T = Trace of Precipitation, MM = Missing Value Source: NWS Daily Summary

Daily Weather History Graph

Daily Weather History Graph

Search for Another Location

Airport or City:

Trip Planner

Search our weather history database for the weather conditions in past years. The results will help you decide how hot, cold, wet, or windy it might be!

Date:

Astronomy

Apr. 11, 2013 Rise Set
Actual Time 6:37 AM CDT 7:52 PM CDT
Civil Twilight 6:07 AM CDT 8:22 PM CDT
Nautical Twilight 5:31 AM CDT 8:57 PM CDT
Astronomical Twilight 4:54 AM CDT 9:35 PM CDT
Moon 7:06 AM CDT (4/11) 9:31 PM CDT (4/11)
Length of Visible Light 14h 14m
Length of Day
13h 15m
New Moon, 2% of the Moon is Illuminated
Apr 11
New Moon
Apr 18
First Quarter
Apr 25
Full
May 2
Last Quarter
May 9
New

Hourly Weather History & Observations

Time (CDT) Temp. Windchill Dew Point Humidity Pressure Visibility Wind Dir Wind Speed Gust Speed Precip Events Conditions
12:12 AM 33.8 °F 23.2 °F 33.8 °F 100% 29.77 in 10.0 mi East 17.3 mph - N/A   Overcast
12:32 AM 33.8 °F 23.9 °F 33.8 °F 100% 29.77 in 10.0 mi East 15.0 mph 24.2 mph N/A   Overcast
12:52 AM 33.8 °F 23.9 °F 33.8 °F 100% 29.75 in 5.0 mi East 15.0 mph 23.0 mph N/A Snow Light Snow
1:12 AM 33.8 °F 24.3 °F 33.8 °F 100% 29.75 in 4.0 mi East 13.8 mph - 0.02 in   Overcast
1:32 AM 33.8 °F 23.9 °F 33.8 °F 100% 29.75 in 4.0 mi East 15.0 mph - 0.05 in   Overcast
1:52 AM 33.8 °F 23.9 °F 33.8 °F 100% 29.74 in 7.0 mi East 15.0 mph 20.7 mph N/A   Overcast
2:12 AM 33.8 °F 25.3 °F 33.8 °F 100% 29.73 in 3.0 mi East 11.5 mph - 0.01 in   Overcast
2:32 AM 33.8 °F 24.8 °F 33.8 °F 100% 29.72 in 2.0 mi ENE 12.7 mph - 0.06 in   Overcast
2:52 AM 33.8 °F 25.3 °F 33.8 °F 100% 29.71 in 2.5 mi ENE 11.5 mph 16.1 mph 0.02 in   Overcast
3:12 AM 33.8 °F 29.6 °F 33.8 °F 100% 29.74 in 2.0 mi SE 4.6 mph - 0.08 in   Overcast
3:32 AM 33.8 °F 28.6 °F 33.8 °F 100% 29.73 in 1.2 mi East 5.8 mph - 0.15 in   Overcast
3:52 AM 33.8 °F - 33.8 °F 100% 29.72 in 2.0 mi Calm Calm - 0.01 in   Overcast
4:12 AM 33.8 °F - 33.8 °F 100% 29.73 in 2.0 mi Calm Calm - 0.05 in   Overcast
4:32 AM 33.8 °F 30.8 °F 33.8 °F 100% 29.72 in 2.5 mi NE 3.5 mph - 0.09 in Snow Light Snow
4:52 AM 33.8 °F - 33.8 °F 100% 29.73 in 0.8 mi Calm Calm - 0.01 in Snow Snow
5:12 AM 33.8 °F 29.6 °F 33.8 °F 100% 29.71 in 1.2 mi NNE 4.6 mph - 0.04 in Snow Light Snow
5:32 AM 33.8 °F 27.7 °F 33.8 °F 100% 29.70 in 0.8 mi NE 6.9 mph - 0.07 in Snow Snow
5:52 AM 33.8 °F 26.4 °F 33.8 °F 100% 29.68 in 1.0 mi NE 9.2 mph - N/A Snow Snow
6:12 AM 33.8 °F 26.4 °F 33.8 °F 100% 29.67 in 1.2 mi NE 9.2 mph - 0.01 in Snow Light Snow
6:32 AM 33.8 °F 25.3 °F 33.8 °F 100% 29.65 in 0.8 mi NE 11.5 mph - 0.02 in Snow Snow
6:52 AM 33.8 °F 26.4 °F 33.8 °F 100% 29.67 in 0.5 mi NE 9.2 mph - 0.01 in Snow Light Snow
7:12 AM 33.8 °F 25.8 °F 33.8 °F 100% 29.66 in 1.5 mi ENE 10.4 mph - 0.01 in Snow Light Snow
7:32 AM 33.8 °F 25.3 °F 33.8 °F 100% 29.66 in 1.0 mi ENE 11.5 mph - 0.01 in Snow Light Snow
7:52 AM 33.8 °F 25.8 °F 33.8 °F 100% 29.66 in 1.8 mi ENE 10.4 mph - N/A Snow Light Snow
8:12 AM 33.8 °F 25.8 °F 33.8 °F 100% 29.66 in 1.8 mi ENE 10.4 mph - N/A   Overcast
8:32 AM 33.8 °F 24.8 °F 33.8 °F 100% 29.65 in 2.5 mi ENE 12.7 mph - N/A   Overcast
8:51 AM 33.8 °F 24.3 °F 33.8 °F 100% 29.65 in 4.0 mi ENE 13.8 mph 18.4 mph N/A   Overcast
9:12 AM 33.8 °F 24.8 °F 33.8 °F 100% 29.66 in 1.8 mi ENE 12.7 mph - N/A   Overcast
9:32 AM 33.8 °F 25.8 °F 33.8 °F 100% 29.66 in 2.0 mi East 10.4 mph 17.3 mph N/A   Overcast
9:52 AM 33.8 °F 24.3 °F 33.8 °F 100% 29.65 in 1.2 mi East 13.8 mph 18.4 mph N/A   Overcast
10:12 AM 33.8 °F 23.5 °F 33.8 °F 100% 29.64 in 1.2 mi ENE 16.1 mph 19.6 mph N/A   Overcast
10:32 AM 33.8 °F 23.9 °F 33.8 °F 100% 29.64 in 1.2 mi East 15.0 mph - N/A   Overcast
10:51 AM 33.8 °F 23.9 °F 33.8 °F 100% 29.65 in 1.8 mi East 15.0 mph - N/A   Overcast
11:12 AM 33.8 °F 24.3 °F 33.8 °F 100% 29.66 in 3.0 mi East 13.8 mph 20.7 mph N/A   Overcast
11:32 AM 35.6 °F 26.6 °F 35.6 °F 100% 29.66 in 3.0 mi East 13.8 mph 18.4 mph N/A   Overcast
12:12 PM 35.6 °F 26.2 °F 35.6 °F 100% 29.63 in 5.0 mi ENE 15.0 mph - N/A   Overcast
12:32 PM 35.6 °F 27.1 °F 35.6 °F 100% 29.62 in 5.0 mi East 12.7 mph - N/A   Overcast
12:52 PM 35.6 °F 27.1 °F 35.6 °F 100% 29.62 in 7.0 mi East 12.7 mph 20.7 mph N/A   Overcast
1:12 PM 35.6 °F 27.1 °F 35.6 °F 100% 29.60 in 10.0 mi ENE 12.7 mph - N/A   Overcast
1:32 PM 35.6 °F 27.1 °F 35.6 °F 100% 29.61 in 10.0 mi ENE 12.7 mph - N/A   Overcast
1:52 PM 35.6 °F 28.0 °F 35.6 °F 100% 29.61 in 10.0 mi East 10.4 mph - N/A   Overcast
2:12 PM 35.6 °F 28.6 °F 35.6 °F 100% 29.61 in 5.0 mi ENE 9.2 mph - N/A   Overcast
2:31 PM 35.6 °F 28.6 °F 35.6 °F 100% 29.61 in 2.0 mi ENE 9.2 mph - N/A   Overcast
2:52 PM 35.6 °F 28.6 °F 35.6 °F 100% 29.61 in 1.5 mi ENE 9.2 mph - N/A   Overcast
3:12 PM 35.6 °F 28.0 °F 35.6 °F 100% 29.60 in 1.2 mi ENE 10.4 mph - N/A   Overcast
3:32 PM 35.6 °F 28.6 °F 35.6 °F 100% 29.59 in 1.2 mi ENE 9.2 mph - N/A   Overcast
3:52 PM 35.6 °F 28.6 °F 35.6 °F 100% 29.59 in 1.2 mi NE 9.2 mph - N/A   Overcast
4:12 PM 35.6 °F 28.0 °F 35.6 °F 100% 29.59 in 1.2 mi ENE 10.4 mph - N/A Snow Light Snow
4:32 PM 35.6 °F 28.0 °F 35.6 °F 100% 29.59 in 1.2 mi ENE 10.4 mph - N/A Snow Light Snow
4:52 PM 35.6 °F 28.0 °F 35.6 °F 100% 29.59 in 1.5 mi ENE 10.4 mph - N/A Snow Light Snow
5:12 PM 35.6 °F 28.0 °F 35.6 °F 100% 29.59 in 4.0 mi ENE 10.4 mph - 0.01 in Snow Light Snow
5:32 PM 35.6 °F 28.0 °F 35.6 °F 100% 29.59 in 2.0 mi ENE 10.4 mph - 0.01 in   Overcast
5:52 PM 35.6 °F 28.0 °F 35.6 °F 100% 29.59 in 4.0 mi ENE 10.4 mph - 0.01 in Rain Rain
6:12 PM 35.6 °F 28.0 °F 35.6 °F 100% 29.58 in 4.0 mi ENE 10.4 mph - 0.01 in Snow Light Snow
6:32 PM 35.6 °F 28.0 °F 35.6 °F 100% 29.58 in 4.0 mi NE 10.4 mph - 0.03 in Snow Light Snow
6:51 PM 33.8 °F 27.0 °F 33.8 °F 100% 29.58 in 1.8 mi NE 8.1 mph - N/A Snow Light Snow
7:12 PM 33.8 °F 27.0 °F 33.8 °F 100% 29.57 in 2.0 mi NNE 8.1 mph - 0.01 in Snow Light Snow
7:32 PM 33.8 °F 25.8 °F 33.8 °F 100% 29.58 in 2.5 mi NE 10.4 mph - 0.01 in Snow Light Snow
7:52 PM 33.8 °F 24.8 °F 33.8 °F 100% 29.58 in 4.0 mi NE 12.7 mph - N/A Snow Light Snow
8:12 PM 33.8 °F 24.8 °F 33.8 °F 100% 29.58 in 4.0 mi NE 12.7 mph - N/A Snow Light Snow
8:32 PM 33.8 °F 25.3 °F 33.8 °F 100% 29.58 in 1.0 mi NE 11.5 mph - 0.01 in Snow Light Snow
8:52 PM 33.8 °F 25.8 °F 33.8 °F 100% 29.59 in 1.2 mi NE 10.4 mph - N/A Snow Light Snow
9:12 PM 33.8 °F 25.8 °F 33.8 °F 100% 29.59 in 1.8 mi NE 10.4 mph 16.1 mph N/A Snow Light Snow
9:32 PM 33.8 °F 25.8 °F 33.8 °F 100% 29.59 in 2.5 mi NE 10.4 mph - N/A Snow Light Snow
9:52 PM 33.8 °F 25.8 °F 33.8 °F 100% 29.59 in 3.0 mi NE 10.4 mph - N/A Snow Light Snow
10:11 PM 33.8 °F 25.8 °F 33.8 °F 100% 29.60 in 3.0 mi NE 10.4 mph - N/A Snow Light Snow
10:32 PM 33.8 °F 25.8 °F 33.8 °F 100% 29.60 in 2.5 mi NE 10.4 mph - N/A Snow Light Snow
10:52 PM 33.8 °F 25.8 °F 33.8 °F 100% 29.59 in 4.0 mi NE 10.4 mph - N/A Snow Light Snow
11:11 PM 33.8 °F 25.8 °F 33.8 °F 100% 29.59 in 4.0 mi NE 10.4 mph - N/A Snow Light Snow
11:32 PM 33.8 °F 25.8 °F 33.8 °F 100% 29.59 in 5.0 mi NE 10.4 mph - N/A   Overcast
11:52 PM 33.8 °F 25.8 °F 33.8 °F 100% 29.59 in 7.0 mi NE 10.4 mph - N/A   Overcast